This is the latest recevied weather packets stored in our database for station/object N4NVD-13. If no packets are shown the sender has not sent any weather packets the latest 1 day(s).
| Time | Temp. | Humidity | Pressure | Rain* | Wind** | Luminosity | Snow |
|---|---|---|---|---|---|---|---|
| 1778032542 | 25.56° C | 91% | 1006.4 hPa | 0 mm | - | 0 W/m² | - |
| 1778032238 | 25.56° C | 91% | 1006.1 hPa | 0 mm | - | 0 W/m² | - |
| 1778031936 | 25.56° C | 91% | 1006.2 hPa | 0 mm | - | 0 W/m² | - |
| 1778031331 | 25.56° C | 91% | 1006 hPa | 0 mm | - | 0 W/m² | - |
| 1778031027 | 25.56° C | 91% | 1006 hPa | 0 mm | - | 0 W/m² | - |
| 1778030723 | 25.56° C | 90% | 1006 hPa | 0 mm | - | 0 W/m² | - |
| 1778030420 | 25.56° C | 90% | 1005.8 hPa | 0 mm | - | 0 W/m² | - |
| 1778030118 | 25.56° C | 90% | 1005.7 hPa | 0 mm | - | 0 W/m² | - |
| 1778029814 | 26.11° C | 89% | 1005.7 hPa | 0 mm | - | 0 W/m² | - |
| 1778029514 | 26.11° C | 89% | 1005.5 hPa | 0 mm | - | 0 W/m² | - |
| 1778029210 | 26.11° C | 89% | 1005.5 hPa | 0 mm | - | 4 W/m² | - |
| 1778028907 | 26.11° C | 88% | 1005.3 hPa | 0 mm | - | 10 W/m² | - |
| 1778027996 | 26.67° C | 88% | 1005.1 hPa | 0 mm | - | 21 W/m² | - |
| 1778027693 | 26.67° C | 87% | 1005.1 hPa | 0 mm | - | 23 W/m² | - |
| 1778027389 | 26.67° C | 87% | 1004.9 hPa | 0 mm | - | 29 W/m² | - |
| 1778027085 | 26.67° C | 87% | 1005 hPa | 0 mm | - | 38 W/m² | - |
| 1778026781 | 26.67° C | 87% | 1004.8 hPa | 0 mm | - | 48 W/m² | - |
| 1778026478 | 27.22° C | 87% | 1005 hPa | 0 mm | - | 51 W/m² | - |
| 1778025873 | 27.22° C | 86% | 1005.2 hPa | 0 mm | - | 61 W/m² | - |
| 1778025268 | 27.22° C | 85% | 1005.1 hPa | 0 mm | - | 61 W/m² | - |
* Rain latest hour (hover to see other rain measurements)
** Current wind speed in m/s (hover to see current wind gust speed)